Dundee, United Kingdom

4:06 PM GMT on February 06, 2016 (GMT +0000)
Dundee

Weather History for EGPN - April, 2013

Change the Weather History Date:

Tuesday, April 9, 2013

  Actual Average Record
Temperature  
Mean Temperature 42 °F -  
Max Temperature 44 °F 52 °F 62 °F (2007)
Min Temperature 39 °F 43 °F 33 °F (2008)
Degree Days  
Heating Degree Days 24    
Moisture  
Dew Point 31 °F    
Average Humidity 66    
Maximum Humidity 87    
Minimum Humidity 57    
Precipitation  
Precipitation 0.00 in - - ()
Sea Level Pressure  
Sea Level Pressure 29.71 in    
Wind  
Wind Speed 13 mph ()    
Max Wind Speed 18 mph    
Max Gust Speed -    
Visibility 6.2 miles    
Events      
Averages and records for this station are not official NWS values.
T = Trace of Precipitation, MM = Missing Value Source: Averaged Metar Reports

Daily Weather History Graph

Daily Weather History Graph

Search for Another Location

Airport or City:

Trip Planner

Search our weather history database for the weather conditions in past years. The results will help you decide how hot, cold, wet, or windy it might be!

Date:

Astronomy

Apr. 09, 2013 Rise Set
Actual Time 6:20 AM BST 8:07 PM BST
Civil Twilight 5:41 AM BST 8:47 PM BST
Nautical Twilight 4:51 AM BST 9:37 PM BST
Astronomical Twilight 3:53 AM BST 10:36 PM BST
Moon 5:43 AM BST (4/9) 7:27 PM BST (4/9)
Length of Visible Light 15h 06m
Length of Day
13h 47m
Waning Crescent, 1% of the Moon is Illuminated
Apr 9
Waning Crescent
Apr 10
New
Apr 18
First Quarter
Apr 25
Full
May 2
Last Quarter

Hourly Weather History & Observations

Time (BST) Temp. Windchill Dew Point Humidity Pressure Visibility Wind Dir Wind Speed Gust Speed Precip Events Conditions
7:50 AM 39.2 °F 30.8 °F 30.2 °F 70% 29.71 in 6.2 mi East 15.0 mph - N/A   Scattered Clouds
8:20 AM 39.2 °F 31.2 °F 30.2 °F 70% 29.71 in 6.2 mi East 13.8 mph - N/A   Scattered Clouds
8:50 AM 39.2 °F 31.2 °F 28.4 °F 65% 29.71 in 6.2 mi East 13.8 mph - N/A   Scattered Clouds
9:20 AM 39.2 °F 30.8 °F 28.4 °F 65% 29.71 in 6.2 mi East 15.0 mph - N/A   Mostly Cloudy
9:50 AM 39.2 °F 30.8 °F 28.4 °F 65% 29.71 in 6.2 mi East 15.0 mph - N/A   Mostly Cloudy
10:20 AM 42.8 °F 34.8 °F 28.4 °F 57% 29.71 in 6.2 mi East 17.3 mph - N/A   Mostly Cloudy
10:50 AM 42.8 °F 35.1 °F 28.4 °F 57% 29.71 in 6.2 mi East 16.1 mph - N/A   Mostly Cloudy
11:20 AM 41.0 °F 32.5 °F 28.4 °F 61% 29.71 in 6.2 mi East 17.3 mph - N/A   Scattered Clouds
11:50 AM 42.8 °F 35.4 °F 28.4 °F 57% 29.71 in 6.2 mi East 15.0 mph - N/A   Scattered Clouds
12:20 PM 42.8 °F 35.1 °F 30.2 °F 61% 29.71 in 6.2 mi East 16.1 mph - N/A   Scattered Clouds
12:50 PM 44.6 °F 37.2 °F 30.2 °F 57% 29.71 in 6.2 mi East 17.3 mph - N/A   Scattered Clouds
1:20 PM 42.8 °F 34.5 °F 30.2 °F 61% 29.71 in 6.2 mi East 18.4 mph - N/A   Scattered Clouds
1:50 PM 42.8 °F 34.8 °F 30.2 °F 61% 29.71 in 6.2 mi East 17.3 mph - N/A   Partly Cloudy
2:20 PM 42.8 °F 34.5 °F 30.2 °F 61% 29.71 in 6.2 mi East 18.4 mph - N/A   Partly Cloudy
2:50 PM 42.8 °F 34.5 °F 30.2 °F 61% 29.71 in 6.2 mi East 18.4 mph - N/A   Partly Cloudy
3:20 PM 42.8 °F 34.8 °F 30.2 °F 61% 29.71 in 6.2 mi East 17.3 mph - N/A   Partly Cloudy
3:50 PM 42.8 °F 35.1 °F 30.2 °F 61% 29.71 in 6.2 mi East 16.1 mph - N/A   Partly Cloudy
4:20 PM 42.8 °F 35.4 °F 30.2 °F 61% 29.71 in 6.2 mi East 15.0 mph - N/A   Partly Cloudy
4:50 PM 42.8 °F 35.8 °F 30.2 °F 61% 29.71 in 6.2 mi East 13.8 mph - N/A   Partly Cloudy
5:20 PM 42.8 °F 36.2 °F 32.0 °F 66% 29.71 in 6.2 mi East 12.7 mph - N/A   Partly Cloudy
5:50 PM 42.8 °F 36.2 °F 32.0 °F 66% 29.71 in 6.2 mi East 12.7 mph - N/A   Partly Cloudy
6:20 PM 41.0 °F 33.9 °F 33.8 °F 76% 29.71 in 6.2 mi East 12.7 mph - N/A   Mostly Cloudy
6:50 PM 41.0 °F 33.9 °F 33.8 °F 76% 29.71 in 6.2 mi East 12.7 mph - N/A   Mostly Cloudy
7:20 PM 41.0 °F 33.9 °F 33.8 °F 76% 29.71 in 6.2 mi East 12.7 mph - N/A   Mostly Cloudy
7:50 PM 41.0 °F 34.7 °F 33.8 °F 76% 29.71 in 6.2 mi ENE 10.4 mph - N/A   Mostly Cloudy
8:20 PM 41.0 °F 35.2 °F 33.8 °F 76% 29.71 in 6.2 mi East 9.2 mph - N/A   Mostly Cloudy
8:50 PM 41.0 °F 35.2 °F 33.8 °F 76% 29.71 in 6.2 mi ENE 9.2 mph - N/A   Mostly Cloudy
9:20 PM 41.0 °F 34.7 °F 33.8 °F 76% 29.71 in 6.2 mi East 10.4 mph - N/A   Mostly Cloudy
9:50 PM 39.2 °F 32.5 °F 35.6 °F 87% 29.74 in 6.2 mi ENE 10.4 mph - N/A   Mostly Cloudy